Location: Aalen
(48.8330°N, 10.1000°E)
Time: 19:00:41
(UTC+02:00)

Transit 4A - Pass Details

Date: 05 August 2021
Orbit: 871 x 974 km, 66.8° (Epoch: 16 September)

Event Time Altitude Azimuth Distance (km) Brightness Sun altitude
Rises 08:19:46 0° 325° (NW) 3,475 10.6 21.5°
Reaches altitude 10° 08:22:17 10° 328° (NNW) 2,539 10.0 21.9°
Maximum altitude 08:28:07 65° 51° (NE) 971 8.8 22.8°
Drops below altitude 10° 08:34:02 10° 133° (SE) 2,577 11.1 23.8°
Sets 08:36:36 0° 136° (SE) 3,530 11.6 24.2°
